Terminal Aerodrome Forecast
Issued by NWS

Home | Current Version | Previous Version | Text Only | Print | Product List | Glossary Off
Versions: 1 2 3 4 5 6 7 8 9 10 11 12 13 14 15 16 17 18 19 20 21 22 23 24 25

000
FTUS42 KMHX 170500
TAFOAJ
TAF
KOAJ 170528Z 1706/1806 24005KT P6SM SCT035 BKN120
      TEMPO 1706/1707 2SM TSRA BKN035CB OVC050
     FM170700 VRB03KT 5SM -RA SCT035 BKN110
     FM170800 00000KT P6SM OVC040
     FM171300 04005KT P6SM VCSH OVC050
     FM171900 04005KT P6SM VCSH BKN050
      AMD LTD TO CLD VIS AND WIND=

USA.gov is the U.S. government's official web portal to all federal, state and local government web resources and services.